Estación Meteorológica Peña el Pijo (Robertgarden) [ 07/11/20 23:00:34 CEST ]

Fecha Hora Presion(HPa) Temp (°C) Humedad % Rocio (°C) Viento ( m/s) Direccion Lluvia 1Hora(mm) Lluvia 24H(mm) LLuvia Total(mm)
2020-Apr-20 01:08:46 1000.900 - - - - W     39.88
2020-Apr-20 02:09:18 1000.900 - - - - W     39.88
2020-Apr-20 03:09:34 1000.600 - - - - W     39.88
2020-Apr-20 04:09:18 1000.400 - - - - W     39.88
2020-Apr-20 05:09:07 1000.300 - - - - W     39.88
2020-Apr-20 06:09:10 1000.300 - - - - W     39.88
2020-Apr-20 07:09:48 1000.300 - - - - W     39.88
2020-Apr-20 08:09:39 1000.500 - - - - W     39.88
2020-Apr-20 09:10:01 1000.800 - - - - W     39.88
2020-Apr-20 10:10:18 1000.800 - - - - W     39.88
2020-Apr-20 11:08:50 1000.900 - - - - W     39.88
2020-Apr-20 12:09:26 1001.300 - - - - W     39.88
2020-Apr-20 13:09:16 1001.300 - - - - W     39.88
2020-Apr-20 14:09:13 1001.000 - - - - W     39.88
2020-Apr-20 15:09:04 1000.700 - - - - W     39.88
2020-Apr-20 16:09:23 1000.500 - - - - W     39.88
2020-Apr-20 17:08:46 999.700 - - - - W     39.88
2020-Apr-20 18:09:23 999.800 - - - - W     39.88
2020-Apr-20 19:09:21 999.800 - - - - W     39.88
2020-Apr-20 20:09:16 999.700 - - - - W     39.88
2020-Apr-20 21:09:20 999.800 - - - - W     39.88
2020-Apr-20 22:09:19 1000.400 - - - - W     39.88
2020-Apr-20 23:09:34 1000.400 - - - - W     39.88

Temperatura Máxima:    Temperatura Mínima:
Presión Máxima:1001.300 Hpa    Presión Mínima:999.700 Hpa


Volver